Weather in Timkovo

Russia / Tver Oblast     57°59′47″N   34°15′21″E
temp.,
°C
wind,
m/s
gust,
m/s
humid.,
%
clouds,
%
prec.,
mm/h
press.,
hPa
HPBL,
m
18 may, tue
tue1800:00+16ese4139637 0.6 1008378
03:00+16ese3119710 0.6 1007312
06:00+16ese4129599 0.0 1006361
09:00+21se51279100 0.0 1006600
12:00+26se6134870 0.0 10061469
15:00+28se6113840 0.0 10062915
18:00+26se612435 0.0 10051751
21:00+18ese396416 0.0 1005173
19 may, wed
wed1900:00+17ese31375100 0.0 1005311
03:00+16ese412825 0.0 1005334
06:00+17ese413820 0.0 1004472
09:00+21se611615 0.0 1004848
12:00+24sse819505 0.1 10032685
15:00+23s6104999 0.7 10042020
18:00+22s511573 0.0 10041647
21:00+16sse238412 0.1 100657
20 may, thu
thu2000:00+14sse259498 0.1 1006110
03:00+13se2396100 0.1 100660
06:00+14ese279181 0.1 1006223
09:00+19e4769100 0.1 1004757
12:00+20se61067100 0.4 10031539
15:00+20sse695411 1.5 10021707
18:00+19sse59600 0.1 10021400
21:00+13sse39925 1.4 1002217
21 may, fri
fri2100:00+11w3697100 0.4 1002346
03:00+9wnw41096100 0.4 1004684
06:00+9w51192100 0.1 1005866
09:00+10w588591 0.1 1007830
12:00+16w68425 0.0 10081928
15:00+17wsw693593 0.0 10092788
18:00+16wsw594330 0.0 10112586
21:00+10wsw39661 0.0 1013336
22 may, sat
sat2200:00+8sw311765 0.0 1014307
03:00+6sw39895 0.0 1016188
06:00+8ssw398017 0.0 1016235
09:00+14ssw4650100 0.0 1016870
12:00+18ssw474113 0.0 10152115
15:00+19ssw693399 0.0 10142664
18:00+18ssw4945100 0.0 10131862
21:00+13w116885 0.0 101424